星链-6323 (STARLINK-6323 )

导读 | 豆包AI

STARLINK-6323是美国SpaceX星链计划中的一颗卫星,于2023年5月14日发射升空,属于星链星座组网卫星,主要为全球提供低延迟、高速率的宽带互联网服务,依托近地轨道部署,可弥补传统地面网络覆盖盲区,推动全球互联基础设施建设。

基本信息
目录编号:
56524
目录名称:
STARLINK-6323
国际标识:
2023-065X
轨道中心:
EARTH
卫星名称:
星链-6323
卫星全名:
星链-6323 (STARLINK-6323 )
卫星状态:
在轨 (已飞行1036 天)
发射日期:
2023-05-14 UTC
国别 :
美国 (US)
星等 :
--
轨道信息
数据来源 国际轨道数据
星历时间: 2026-03-13T15:38:50+0800
2天前
查看轨道信息
半长轴: 6937.035km
偏心率: 0.0001436
轨道倾角: 43.003°
近地点辐角 288.028°
升交点赤经 190.363°
平近点角 72.041°
近地点: 557.901km
远地点: 559.895km
周期: 95.834分钟
每日圈数: 15.025952
详细信息
固有亮度:
5
最大亮度:
2.5
卫星平台:
Starlink v1.5
覆盖范围:
全球
运营商:
太空探索技术公司
运营商所在国:
美国
制造商(研发单位):
太空探索技术公司
制造商所在国:
美国
使用方式:
暂无
卫星简介
星链(Starlink)计划是由太空探索技术公司(SpaceX)提出的一个巨型低轨卫星互联网星座项目,计划在2019年至2024年间在太空搭建由约1.2万颗卫星组成的“星链”网络,其中1584颗将部署在地球上空550千米处的近地轨道,并从2020年开始工作。该卫星仍在工作。
2D轨道图
3D轨道图
轨道高度分析图
轨道倾角分析图
轨道综合分析图
查看轨道综合分析图